FW3585 Weather Reports


Display with metric or nautical units.
time (UTC)temp
F
wind
direction
speed
MPH
gust
MPH
rain 1hr
in
rain 24hr
in
rain mn
in
humidity
%
barometer
mb
20260903121556 74 341 2.0 5.0 0.00 0.00 0.00 90 1017.8
20260903120053 72 360 2.0 4.0 0.00 0.00 0.00 92 1017.8
20260903114548 71 355 2.0 5.0 0.00 0.00 0.00 95 1017.6
20260903113045 69 343 0.0 0.0 0.00 0.00 0.00 96 1017.3
20260903111540 69 343 0.0 0.0 0.00 0.00 0.00 96 1017.0
20260903110043 69 343 0.0 0.0 0.00 0.00 0.00 96 1016.9
20260903104536 69 343 0.0 0.0 0.00 0.00 0.00 96 1017.0
20260903103037 69 343 0.0 0.0 0.00 0.00 0.00 96 1016.9
20260903101534 69 336 0.0 0.0 0.00 0.00 0.00 95 1016.8
20260903100038 69 336 0.0 0.0 0.00 0.00 0.00 95 1016.7
20260903094542 70 336 0.0 0.0 0.00 0.00 0.00 95 1016.7
20260903093033 70 336 0.0 0.0 0.00 0.00 0.00 95 1016.6
20260903091534 70 336 0.0 0.0 0.00 0.00 0.00 94 1016.5
20260903090039 70 336 0.0 0.0 0.00 0.00 0.00 94 1016.4
20260903084531 70 336 0.0 0.0 0.00 0.00 0.00 94 1016.5
20260903083031 71 338 0.0 0.0 0.00 0.00 0.00 93 1016.5
20260903081526 71 333 0.0 0.0 0.00 0.00 0.00 93 1016.6
20260903080025 71 333 0.0 0.0 0.00 0.00 0.00 92 1016.8
20260903074523 72 333 0.0 0.0 0.00 0.00 0.00 92 1016.7
20260903073023 72 333 0.0 0.0 0.00 0.00 0.00 92 1016.7
20260903071521 72 347 0.0 0.0 0.00 0.00 0.00 91 1016.7
20260903070023 72 347 0.0 0.0 0.00 0.00 0.00 91 1016.6
20260903064519 73 335 0.0 0.0 0.00 0.00 0.00 90 1016.7
20260903063031 73 335 0.0 0.0 0.00 0.00 0.00 91 1016.5
20260903061520 72 331 2.0 4.0 0.00 0.00 0.00 91 1016.7
20260903060036 72 331 2.0 4.0 0.00 0.00 0.00 91 1016.8
20260903054514 73 346 1.0 3.0 0.00 0.00 0.00 90 1016.9
20260903053012 73 349 2.0 4.0 0.00 0.00 0.00 89 1016.8
20260903051510 74 315 0.0 2.0 0.00 0.00 0.00 87 1016.7
20260903050009 74 315 0.0 0.0 0.00 0.00 0.00 86 1016.5
20260903044506 74 315 0.0 1.0 0.00 0.00 0.00 86 1016.8
20260903043015 75 315 1.0 3.0 0.00 0.00 0.00 86 1016.8
20260903041504 75 325 2.0 4.0 0.00 0.00 0.00 85 1016.9
20260903040105 75 348 3.0 5.0 0.00 0.00 0.00 85 1017.1
20260903034558 76 5 3.0 6.0 0.00 0.00 0.00 84 1017.1
20260903033058 77 342 3.0 5.0 0.00 0.00 0.00 82 1017.1
20260903031556 77 335 0.0 4.0 0.00 0.00 0.00 81 1017.3
20260903030055 78 333 2.0 4.0 0.00 0.00 0.00 80 1017.2
20260903024556 80 325 1.0 4.0 0.00 0.00 0.00 77 1017.4
20260903023102 81 78 3.0 9.0 0.00 0.00 0.00 77 1017.5
20260903021603 81 95 0.0 5.0 0.00 0.00 0.00 76 1017.2
20260903020100 82 98 2.0 8.0 0.00 0.00 0.00 75 1017.4
20260903014603 82 72 3.0 10.0 0.00 0.00 0.00 73 1017.5
20260903013054 83 54 1.0 5.0 0.00 0.00 0.00 69 1017.3
20260903011550 85 340 0.0 2.0 0.00 0.00 0.00 64 1017.1
20260903010051 86 121 0.0 6.0 0.00 0.00 0.00 62 1017.0
20260903004551 86 144 4.0 8.0 0.00 0.00 0.00 61 1016.5
20260903003046 88 136 4.0 8.0 0.00 0.00 0.00 59 1016.4
20260903001550 89 159 1.0 7.0 0.00 0.00 0.00 57 1016.6
20260903000046 90 165 1.0 5.0 0.00 0.00 0.00 56 1016.6
20260902234558 91 180 3.0 7.0 0.00 0.00 0.00 54 1016.7
20260902233045 93 173 2.0 7.0 0.00 0.00 0.00 52 1016.4
20260902231548 93 136 1.0 6.0 0.00 0.00 0.00 51 1016.2
20260902230044 94 87 3.0 7.0 0.00 0.00 0.00 49 1016.1
20260902224546 95 146 2.0 5.0 0.00 0.00 0.00 47 1016.4
20260902223046 96 143 0.0 7.0 0.00 0.00 0.00 46 1016.3
20260902221546 96 329 0.0 1.0 0.00 0.00 0.00 45 1016.3
20260902220042 96 324 1.0 3.0 0.00 0.00 0.00 45 1016.1
20260902214543 96 41 0.0 3.0 0.00 0.00 0.00 43 1016.0
20260902213039 95 340 2.0 5.0 0.00 0.00 0.00 48 1015.8
20260902211540 94 257 1.0 3.0 0.00 0.00 0.00 48 1015.6
20260902210038 95 257 0.0 1.0 0.00 0.00 0.00 50 1015.7
20260902204536 95 257 0.0 1.0 0.00 0.00 0.00 44 1015.7
20260902203036 97 257 0.0 3.0 0.00 0.00 0.00 42 1015.7
20260902201539 97 109 0.0 5.0 0.00 0.00 0.00 40 1015.8
20260902200034 96 88 0.0 7.0 0.00 0.00 0.00 41 1016.1
20260902194532 97 248 0.0 4.0 0.00 0.00 0.00 42 1016.4
20260902193026 96 120 2.0 7.0 0.00 0.00 0.00 41 1016.6
20260902191525 96 58 4.0 11.0 0.00 0.00 0.00 44 1016.8
20260902190024 96 267 2.0 7.0 0.00 0.00 0.00 44 1016.9
20260902184523 95 30 5.0 13.0 0.00 0.00 0.00 42 1017.0
20260902183024 95 274 3.0 8.0 0.00 0.00 0.00 45 1017.1
20260902181519 95 249 2.0 10.0 0.00 0.00 0.00 42 1017.2
20260902180018 95 16 2.0 6.0 0.00 0.00 0.00 44 1017.4
20260902174516 94 338 1.0 8.0 0.00 0.00 0.00 45 1017.3
20260902173028 95 313 1.0 4.0 0.00 0.00 0.00 45 1017.5
20260902171513 94 301 2.0 9.0 0.00 0.00 0.00 47 1017.7
20260902170012 94 228 6.0 10.0 0.00 0.00 0.00 46 1017.8
20260902164509 93 355 2.0 7.0 0.00 0.00 0.00 48 1017.9
20260902163006 93 244 6.0 10.0 0.00 0.00 0.00 52 1018.1
20260902161511 93 215 3.0 6.0 0.00 0.00 0.00 53 1018.2
20260902160100 92 271 5.0 9.0 0.00 0.00 0.00 53 1018.4
20260902154556 91 306 2.0 4.0 0.00 0.00 0.00 54 1018.7
20260902153054 90 319 1.0 6.0 0.00 0.00 0.00 57 1018.6
20260902151551 91 220 5.0 9.0 0.00 0.00 0.00 53 1018.7
20260902150047 90 65 1.0 4.0 0.00 0.00 0.00 58 1018.7
20260902144542 89 61 2.0 4.0 0.00 0.00 0.00 62 1018.5
20260902143039 88 348 2.0 5.0 0.00 0.00 0.00 64 1018.5
20260902141537 87 38 2.0 5.0 0.00 0.00 0.00 66 1018.4
20260902140034 86 339 2.0 5.0 0.00 0.00 0.00 68 1018.5
20260902134525 85 12 2.0 5.0 0.00 0.00 0.00 69 1018.2
20260902133021 84 15 2.0 5.0 0.00 0.00 0.00 71 1018.2
20260902131527 83 355 3.0 5.0 0.00 0.00 0.00 72 1018.2
20260902130012 82 342 3.0 4.0 0.00 0.00 0.00 72 1018.2
20260902124517 81 355 2.0 3.0 0.00 0.00 0.00 78 1018.2
20260902123004 78 360 2.0 4.0 0.00 0.00 0.00 83 1018.3